When you browse on this site, cookies collect data to enhance your experience and personalize the content and advertising you see.
Visit our Privacy Policy to learn more. By continuing to use the site, you agree to this use of cookies and data.
  • In Austria
  • List of Countries
  • For 7 days
  • Water Temperature
  • Weather Map
  • News
  • Weather Widgets
  • user-avatar
    Login

    Hourly Weather Tolcayuca

    Today, 19 August, Monday

    Time Temperature Precipitation Wind Pressure Humidity
    00:00 +14°C° 0 mm 2 mps 575 mmHg 92%
    01:00 +14°C° 0 mm 1 mps 574 mmHg 92%
    02:00 +14°C° 0 mm 1 mps 574 mmHg 92%
    03:00 +14°C° 0 mm 1 mps 574 mmHg 92%
    04:00 +14°C° 0 mm 1 mps 574 mmHg 92%
    05:00 +14°C° 0 mm 2 mps 575 mmHg 91%
    06:00 +15°C° 0 mm 2 mps 575 mmHg 85%
    07:00 +16°C° 0 mm 2 mps 576 mmHg 79%
    08:00 +17°C° 0 mm 2 mps 576 mmHg 73%
    09:00 +19°C° 0 mm 3 mps 577 mmHg 66%
    10:00 +20°C° 0 mm 4 mps 578 mmHg 59%
    11:00 +22°C° 0 mm 5 mps 578 mmHg 52%
    12:00 +22°C° 0.2 mm 6 mps 578 mmHg 54%
    13:00 +22°C° 0.2 mm 6 mps 577 mmHg 55%
    14:00 +22°C° 0.2 mm 7 mps 577 mmHg 57%
    15:00 +21°C° 0.1 mm 7 mps 576 mmHg 61%
    16:00 +19°C° 0.1 mm 6 mps 576 mmHg 64%
    17:00 +17°C° 0.1 mm 6 mps 575 mmHg 68%
    18:00 +16°C° 0 mm 5 mps 575 mmHg 74%
    19:00 +15°C° 0 mm 4 mps 575 mmHg 80%
    20:00 +14°C° 0 mm 2 mps 575 mmHg 86%
    21:00 +14°C° 0 mm 2 mps 575 mmHg 86%
    22:00 +13°C° 0 mm 2 mps 575 mmHg 86%
    23:00 +12°C° 0 mm 2 mps 575 mmHg 86%

    Tomorrow, 20 August, Tuesday

    Time Temperature Precipitation Wind Pressure Humidity
    00:00 +12°C° 0 mm 2 mps 574 mmHg 86%
    01:00 +10°C° 0 mm 2 mps 574 mmHg 85%
    02:00 +11°C° 0 mm 1 mps 573 mmHg 85%
    03:00 +10°C° 0 mm 1 mps 573 mmHg 85%
    04:00 +10°C° 0 mm 1 mps 573 mmHg 85%
    05:00 +9°C° 0 mm 1 mps 573 mmHg 86%
    06:00 +11°C° 0 mm 1 mps 574 mmHg 78%
    07:00 +13°C° 0 mm 1 mps 575 mmHg 71%
    08:00 +15°C° 0 mm 1 mps 576 mmHg 63%
    09:00 +17°C° 0 mm 2 mps 577 mmHg 57%
    10:00 +19°C° 0 mm 2 mps 578 mmHg 52%
    11:00 +21°C° 0 mm 3 mps 578 mmHg 46%
    12:00 +21°C° 0 mm 4 mps 578 mmHg 49%
    13:00 +21°C° 0 mm 5 mps 577 mmHg 51%
    14:00 +22°C° 0 mm 5 mps 577 mmHg 54%
    15:00 +20°C° 0.3 mm 6 mps 576 mmHg 60%
    16:00 +19°C° 0.3 mm 6 mps 576 mmHg 67%
    17:00 +17°C° 0.3 mm 6 mps 576 mmHg 73%
    18:00 +15°C° 0 mm 5 mps 575 mmHg 78%
    19:00 +14°C° 0 mm 4 mps 575 mmHg 83%
    20:00 +13°C° 0 mm 2 mps 575 mmHg 89%
    21:00 +13°C° 0 mm 2 mps 575 mmHg 89%
    22:00 +13°C° 0 mm 2 mps 575 mmHg 90%
    23:00 +13°C° 0 mm 1 mps 575 mmHg 91%

    Day after tomorrow, 21 August, Wednesday

    Time Temperature Precipitation Wind Pressure Humidity
    00:00 +12°C° 0 mm 1 mps 575 mmHg 90%
    01:00 +12°C° 0 mm 1 mps 574 mmHg 90%
    02:00 +12°C° 0 mm 1 mps 574 mmHg 89%
    03:00 +11°C° 0 mm 1 mps 574 mmHg 90%
    04:00 +11°C° 0 mm 1 mps 574 mmHg 91%
    05:00 +11°C° 0 mm 1 mps 574 mmHg 92%
    06:00 +12°C° 0 mm 1 mps 575 mmHg 86%
    07:00 +14°C° 0 mm 1 mps 576 mmHg 79%
    08:00 +15°C° 0 mm 1 mps 577 mmHg 73%
    09:00 +18°C° 0 mm 1 mps 577 mmHg 65%
    10:00 +19°C° 0 mm 2 mps 578 mmHg 58%
    11:00 +21°C° 0 mm 2 mps 578 mmHg 51%
    12:00 +21°C° 0.1 mm 3 mps 578 mmHg 53%
    13:00 +21°C° 0.1 mm 4 mps 577 mmHg 54%
    14:00 +22°C° 0.1 mm 4 mps 577 mmHg 56%
    15:00 +20°C° 0.6 mm 4 mps 576 mmHg 61%
    16:00 +19°C° 0.6 mm 5 mps 576 mmHg 67%
    17:00 +17°C° 0.6 mm 5 mps 576 mmHg 72%
    18:00 +17°C° 0.2 mm 4 mps 575 mmHg 78%
    19:00 +14°C° 0.2 mm 3 mps 575 mmHg 83%
    20:00 +14°C° 0.2 mm 2 mps 575 mmHg 89%
    21:00 +14°C° 0.1 mm 2 mps 575 mmHg 89%
    22:00 +14°C° 0.1 mm 1 mps 575 mmHg 89%
    23:00 +13°C° 0.1 mm 1 mps 575 mmHg 89%

    22 August, Thursday

    Time Temperature Precipitation Wind Pressure Humidity
    00:00 +13°C° 0 mm 1 mps 574 mmHg 90%
    01:00 +11°C° 0 mm 0 mps 574 mmHg 91%
    02:00 +11°C° 0 mm 0 mps 573 mmHg 92%
    03:00 +11°C° 0 mm 0 mps 573 mmHg 92%
    04:00 +10°C° 0 mm 0 mps 573 mmHg 92%
    05:00 +10°C° 0 mm 0 mps 573 mmHg 92%
    06:00 +13°C° 0 mm 1 mps 575 mmHg 85%
    07:00 +15°C° 0 mm 1 mps 576 mmHg 78%
    08:00 +18°C° 0 mm 1 mps 577 mmHg 71%
    09:00 +20°C° 0.2 mm 1 mps 578 mmHg 66%
    10:00 +21°C° 0.2 mm 1 mps 578 mmHg 60%
    11:00 +23°C° 0.2 mm 1 mps 578 mmHg 54%
    12:00 +23°C° 1.2 mm 2 mps 578 mmHg 54%
    13:00 +23°C° 1.2 mm 2 mps 578 mmHg 55%
    14:00 +24°C° 1.2 mm 3 mps 577 mmHg 55%
    15:00 +22°C° 2 mm 3 mps 577 mmHg 61%
    16:00 +21°C° 2 mm 3 mps 576 mmHg 66%
    17:00 +20°C° 2 mm 2 mps 576 mmHg 72%
    18:00 +19°C° 1.4 mm 2 mps 576 mmHg 76%
    19:00 +18°C° 1.4 mm 2 mps 576 mmHg 80%
    20:00 +18°C° 1.4 mm 1 mps 576 mmHg 84%
    21:00 +16°C° 0.8 mm 2 mps 576 mmHg 85%
    22:00 +16°C° 0.8 mm 2 mps 576 mmHg 86%
    23:00 +15°C° 0.8 mm 2 mps 576 mmHg 88%

    23 August, Friday

    Time Temperature Precipitation Wind Pressure Humidity
    00:00 +15°C° 0.1 mm 2 mps 576 mmHg 87%
    01:00 +15°C° 0.1 mm 1 mps 575 mmHg 87%
    02:00 +15°C° 0.1 mm 1 mps 575 mmHg 86%
    03:00 +14°C° 0 mm 1 mps 575 mmHg 87%
    04:00 +14°C° 0 mm 1 mps 575 mmHg 88%
    05:00 +14°C° 0 mm 1 mps 575 mmHg 88%
    06:00 +15°C° 0 mm 1 mps 576 mmHg 84%
    07:00 +16°C° 0 mm 1 mps 577 mmHg 79%
    08:00 +18°C° 0 mm 1 mps 577 mmHg 74%
    09:00 +19°C° 0.3 mm 1 mps 578 mmHg 69%
    10:00 +20°C° 0.3 mm 2 mps 578 mmHg 64%
    11:00 +21°C° 0.3 mm 2 mps 578 mmHg 59%
    12:00 +23°C° 1 mm 2 mps 578 mmHg 57%
    13:00 +23°C° 1 mm 1 mps 578 mmHg 55%
    14:00 +23°C° 1 mm 1 mps 578 mmHg 52%
    15:00 +21°C° 1.4 mm 2 mps 577 mmHg 60%
    16:00 +20°C° 1.4 mm 2 mps 576 mmHg 68%
    17:00 +18°C° 1.4 mm 3 mps 576 mmHg 76%
    18:00 +17°C° 1.3 mm 2 mps 576 mmHg 80%
    19:00 +16°C° 1.3 mm 2 mps 576 mmHg 84%
    20:00 +15°C° 1.3 mm 1 mps 576 mmHg 88%
    21:00 +15°C° 0 mm 1 mps 576 mmHg 87%
    22:00 +14°C° 0 mm 0 mps 576 mmHg 87%
    23:00 +14°C° 0 mm 0 mps 576 mmHg 86%

    24 August, Saturday

    Time Temperature Precipitation Wind Pressure Humidity
    00:00 +13°C° 0 mm 0 mps 576 mmHg 86%
    01:00 +13°C° 0 mm 0 mps 576 mmHg 87%
    02:00 +13°C° 0 mm 0 mps 576 mmHg 87%
    03:00 +13°C° 0 mm 0 mps 576 mmHg 87%
    04:00 +12°C° 0 mm 0 mps 576 mmHg 86%
    05:00 +12°C° 0 mm 0 mps 575 mmHg 86%
    06:00 +14°C° 0 mm 0 mps 576 mmHg 80%
    07:00 +15°C° 0 mm 0 mps 577 mmHg 75%
    08:00 +16°C° 0 mm 0 mps 578 mmHg 69%
    09:00 +20°C° 0.3 mm 1 mps 579 mmHg 64%
    10:00 +21°C° 0.3 mm 1 mps 579 mmHg 58%
    11:00 +22°C° 0.3 mm 1 mps 579 mmHg 53%
    12:00 +21°C° 0.2 mm 2 mps 579 mmHg 53%
    13:00 +22°C° 0.2 mm 3 mps 578 mmHg 52%
    14:00 +22°C° 0.2 mm 4 mps 578 mmHg 52%
    15:00 +21°C° 0.4 mm 4 mps 578 mmHg 57%
    16:00 +20°C° 0.4 mm 3 mps 577 mmHg 62%
    17:00 +19°C° 0.4 mm 2 mps 577 mmHg 67%
    18:00 +18°C° 0.1 mm 2 mps 576 mmHg 70%
    19:00 +18°C° 0.1 mm 1 mps 576 mmHg 73%
    20:00 +16°C° 0.1 mm 1 mps 576 mmHg 76%
    21:00 +15°C° 0 mm 1 mps 576 mmHg 78%
    22:00 +15°C° 0 mm 1 mps 576 mmHg 79%
    23:00 +13°C° 0 mm 0 mps 575 mmHg 80%
    Show more